This is the latest recevied weather packets stored in our database for station/object OK2ILA-3. If no packets are shown the sender has not sent any weather packets the latest 10 day(s).
| Time | Temp. | Humidity | Pressure | Rain* | Wind** | Luminosity | Snow |
|---|---|---|---|---|---|---|---|
| 1778145383 | 21.11° C | 12% | 0 hPa | 0 mm | - | - | - |
| 1778144777 | 20.56° C | 53% | 0 hPa | 0 mm | - | - | - |
| 1778144170 | 20° C | 100% | 0 hPa | 0 mm | - | - | - |
| 1778143565 | 19.44° C | 8% | 0 hPa | 0 mm | - | - | - |
| 1778142960 | 19.44° C | 100% | 0 hPa | 0 mm | - | - | - |
| 1778142353 | 18.33° C | 12% | 4915.7 hPa | 0 mm | - | - | - |
| 1778141751 | 17.78° C | 25% | 4915.7 hPa | 0 mm | - | - | - |
| 1778141146 | 18.33° C | 9% | 4915.7 hPa | 0 mm | - | - | - |
| 1778140539 | 17.22° C | 15% | 4915.7 hPa | 0 mm | - | - | - |
| 1778139934 | 18.89° C | 58% | 121.6 hPa | 0 mm | - | - | - |
| 1778139329 | 18.89° C | 57% | 121.6 hPa | 0 mm | - | - | - |
| 1778138724 | 19.44° C | 79% | 4352 hPa | 0 mm | - | - | - |
| 1778138114 | 18.89° C | 5% | 68.2 hPa | 0 mm | - | - | - |
| 1778137506 | 18.33° C | 12% | 17 hPa | 0 mm | - | - | - |
| 1778136891 | 16.67° C | 2% | 8.1 hPa | 0 mm | - | - | - |
| 1778136287 | 16.11° C | 100% | 8.1 hPa | 0 mm | - | - | - |
| 1778135682 | 15.56° C | 1% | 3703.4 hPa | 0 mm | - | - | - |
| 1778135071 | 15° C | 38% | 2461.3 hPa | 0 mm | - | - | - |
| 1778134462 | 14.44° C | 1% | 0 hPa | 0 mm | - | - | - |
| 1778133850 | 13.33° C | 53% | 5.4 hPa | 0 mm | - | - | - |
| 1778133238 | 13.33° C | 12% | 5.4 hPa | 0 mm | - | - | - |
| 1778132630 | 12.78° C | 3% | 5.4 hPa | 0 mm | - | - | - |
| 1778132007 | 12.78° C | 8% | 5.4 hPa | 0 mm | - | - | - |
| 1778131388 | 12.78° C | 5% | 4352 hPa | 0 mm | - | - | - |
| 1778130779 | 12.22° C | 53% | 200 hPa | 0 mm | - | - | - |
* Rain latest 24 hours (hover to see other rain measurements)
** Current wind speed in m/s (hover to see current wind gust speed)